Regional & State Weather Roundups


581 
ASUS42 KKEY 151910
RWRKEY
FLORIDA REGIONAL WEATHER ROUNDUP FOR THE FLORIDA KEYS
NATIONAL WEATHER SERVICE KEY WEST FLORIDA
200 PM EST FRI DEC 15 2017
...SOUTH FLORIDA AND THE KEYS...
  
CITY           SKY/WX    TMP DP  RH WIND       PRES   REMARKS
FORT MYERS     SUNNY     76  57  51 SW7       30.07F                  
SW REGIONAL AP SUNNY     75  58  55 SW7       30.07F                  
NAPLES         MOSUNNY   76  56  49 SW9       30.07F                  
MIAMI          PTSUNNY   78  52  40 SW5       30.06F                  
WEST KENDALL   SUNNY     78  57  48 NW10      30.06F                  
HOMESTEAD      SUNNY     77  61  57 S7        30.06F                  
MARATHON       SUNNY     73  50  44 N3        30.07F                  
KEY WEST INTL  SUNNY     76  56  49 N8        30.08F                  
...INTERNATIONAL WEATHER...
  
CITY           SKY/WX    TMP DP  RH WIND       PRES   REMARKS
NASSAU BAHAMAS PTSUNNY   77  63  61 CALM      30.08F                  
CANCUN MEXICO  PTSUNNY   81  70  69 NE9       30.01F                  
COZUMEL MEXICO PTSUNNY   81  72  74 E9        29.98F                  
ADJACENT COASTAL WATERS...
  
STATION/POSITION TIME  SKY/WX   TEMP    WIND        PRES    WAVE
                                AIR SEA DIR/SP/G            HT/PER
                 (UTC)          (F)     (DEG/KT/KT) (MB)    (FT/S)
PULASKI SHOAL LI 1900            74     130/  7/  7 1018.5F
SAND KEY         1850            70                 1019.1F
LONG KEY         NOT AVBL
MOLASSES REEF    1900            72 77  350/  2/  3 1018.6F
FOWEY ROCKS      1900            71 76  240/  2/  2 1018.9F
Buoy 42097       1830               77                N/A     2/ 3
$$